Back to Top

Language: 

My Weather Underground Personal Weather Station Historical Data with Graphs...

Delerius Weather Station Historical Data
Daily Summary for June 13, 2017 Units:  Metric    English   Both
« Previous Day
Next Day »
Daily Weekly Monthly Yearly Custom
  High: Low: Average:
Temperature: 21.8 °C 12.8 °C 16.6 °C
Dew Point: 14.1 °C 10.6 °C 12.4 °C
Humidity: 88 % 58 % 77 %
Wind Speed: 16.1 km/h 0 km/h 7.7 km/h
Wind Gust: 25.7 km/h - -
Wind:- - WSW
Pressure: 1018.2 hPa 1016.8 hPa -
Precipitation: 0 mm    
Historical Graphs
 
 
Tabular Data for June 13, 2017
Time Temperature Dew Point Pressure Wind Wind Speed Wind Gust Humidity Rainfall Rate (Hourly) solar Conditions
00:03 13.4 °C 10.6 °C 1016.8 hPa West 11.3 km/h 17.7 km/h 83 % 0 mm 0 W/m2
00:08 13.4 °C 10.6 °C 1016.8 hPa West 9.7 km/h 17.7 km/h 83 % 0 mm 0 W/m2
00:13 13.5 °C 10.7 °C 1017.2 hPa West 9.7 km/h 14.5 km/h 83 % 0 mm 0 W/m2
00:18 13.4 °C 10.6 °C 1017.2 hPa West 8 km/h 14.5 km/h 83 % 0 mm 0 W/m2
00:23 13.4 °C 10.6 °C 1017.2 hPa WNW 4.8 km/h 14.5 km/h 83 % 0 mm 0 W/m2
00:28 13.4 °C 10.6 °C 1016.8 hPa WNW 4.8 km/h 9.7 km/h 83 % 0 mm 0 W/m2
00:33 13.4 °C 10.6 °C 1016.8 hPa West 6.4 km/h 12.9 km/h 83 % 0 mm 0 W/m2
00:38 13.4 °C 10.8 °C 1016.8 hPa West 8 km/h 12.9 km/h 84 % 0 mm 0 W/m2
00:43 13.3 °C 10.7 °C 1016.8 hPa West 8 km/h 14.5 km/h 84 % 0 mm 0 W/m2
00:48 13.3 °C 10.7 °C 1016.8 hPa West 9.7 km/h 14.5 km/h 84 % 0 mm 0 W/m2
00:53 13.3 °C 10.7 °C 1016.8 hPa West 9.7 km/h 16.1 km/h 84 % 0 mm 0 W/m2
00:58 13.3 °C 10.8 °C 1016.8 hPa West 11.3 km/h 17.7 km/h 85 % 0 mm 0 W/m2
01:03 13.3 °C 10.8 °C 1016.8 hPa West 9.7 km/h 17.7 km/h 85 % 0 mm 0 W/m2
01:08 13.2 °C 10.7 °C 1016.8 hPa West 8 km/h 16.1 km/h 85 % 0 mm 0 W/m2
01:13 13.3 °C 10.8 °C 1016.8 hPa West 6.4 km/h 16.1 km/h 85 % 0 mm 0 W/m2
01:15 13.3 °C 10.8 °C 1016.8 hPa West 6.4 km/h 16.1 km/h 85 % 0 mm 0 W/m2
01:20 13.3 °C 10.8 °C 1017.2 hPa WSW 4.8 km/h 16.1 km/h 85 % 0 mm 0 W/m2
01:25 13.2 °C 10.7 °C 1016.8 hPa West 4.8 km/h 9.7 km/h 85 % 0 mm 0 W/m2
01:30 13.2 °C 10.7 °C 1016.8 hPa West 3.2 km/h 8 km/h 85 % 0 mm 0 W/m2
01:35 13.2 °C 10.7 °C 1016.8 hPa West 6.4 km/h 16.1 km/h 85 % 0 mm 0 W/m2
01:40 13.2 °C 10.7 °C 1016.8 hPa West 9.7 km/h 16.1 km/h 85 % 0 mm 0 W/m2
01:45 13.2 °C 10.7 °C 1017.2 hPa West 9.7 km/h 16.1 km/h 85 % 0 mm 0 W/m2
01:50 13.2 °C 10.7 °C 1016.8 hPa West 11.3 km/h 16.1 km/h 85 % 0 mm 0 W/m2
01:55 13.2 °C 10.9 °C 1017.2 hPa West 9.7 km/h 17.7 km/h 86 % 0 mm 0 W/m2
02:00 13.2 °C 10.7 °C 1017.2 hPa West 9.7 km/h 17.7 km/h 85 % 0 mm 0 W/m2
02:05 13.2 °C 10.9 °C 1017.2 hPa West 9.7 km/h 17.7 km/h 86 % 0 mm 0 W/m2
02:10 13.2 °C 10.9 °C 1017.2 hPa West 11.3 km/h 17.7 km/h 86 % 0 mm 0 W/m2
02:15 13.2 °C 10.9 °C 1017.2 hPa West 11.3 km/h 17.7 km/h 86 % 0 mm 0 W/m2
02:20 13.2 °C 10.9 °C 1017.2 hPa West 11.3 km/h 17.7 km/h 86 % 0 mm 0 W/m2
02:25 13.2 °C 10.9 °C 1017.2 hPa West 11.3 km/h 17.7 km/h 86 % 0 mm 0 W/m2
02:30 13.2 °C 10.9 °C 1017.2 hPa West 9.7 km/h 16.1 km/h 86 % 0 mm 0 W/m2
02:35 13.2 °C 10.9 °C 1017.2 hPa West 8 km/h 16.1 km/h 86 % 0 mm 0 W/m2
02:40 13.2 °C 10.9 °C 1017.2 hPa West 9.7 km/h 16.1 km/h 86 % 0 mm 0 W/m2
02:45 13.2 °C 10.9 °C 1017.2 hPa West 9.7 km/h 14.5 km/h 86 % 0 mm 0 W/m2
02:50 13.2 °C 10.9 °C 1017.2 hPa West 8 km/h 14.5 km/h 86 % 0 mm 0 W/m2
02:55 13.2 °C 10.9 °C 1017.2 hPa West 8 km/h 14.5 km/h 86 % 0 mm 0 W/m2
03:00 13.2 °C 10.9 °C 1017.2 hPa West 4.8 km/h 12.9 km/h 86 % 0 mm 0 W/m2
03:06 13.1 °C 10.8 °C 1017.2 hPa West 6.4 km/h 14.5 km/h 86 % 0 mm 0 W/m2
03:11 13.1 °C 11 °C 1017.2 hPa West 8 km/h 14.5 km/h 87 % 0 mm 0 W/m2
03:16 13.1 °C 11 °C 1017.2 hPa West 6.4 km/h 14.5 km/h 87 % 0 mm 0 W/m2
03:21 13.1 °C 11 °C 1017.2 hPa West 6.4 km/h 11.3 km/h 87 % 0 mm 0 W/m2
03:26 13 °C 10.9 °C 1017.2 hPa West 4.8 km/h 11.3 km/h 87 % 0 mm 0 W/m2
03:31 12.9 °C 10.8 °C 1017.2 hPa West 4.8 km/h 12.9 km/h 87 % 0 mm 0 W/m2
03:36 12.9 °C 10.8 °C 1017.2 hPa West 4.8 km/h 12.9 km/h 87 % 0 mm 0 W/m2
03:41 12.8 °C 10.7 °C 1017.2 hPa West 4.8 km/h 11.3 km/h 87 % 0 mm 0 W/m2
03:46 12.8 °C 10.7 °C 1017.2 hPa West 6.4 km/h 11.3 km/h 87 % 0 mm 0 W/m2
03:51 12.8 °C 10.8 °C 1017.2 hPa West 6.4 km/h 11.3 km/h 88 % 0 mm 0 W/m2
03:56 12.8 °C 10.8 °C 1017.5 hPa West 8 km/h 11.3 km/h 88 % 0 mm 0 W/m2
04:01 12.8 °C 10.8 °C 1017.5 hPa West 6.4 km/h 11.3 km/h 88 % 0 mm 0 W/m2
04:06 12.8 °C 10.8 °C 1017.5 hPa West 6.4 km/h 11.3 km/h 88 % 0 mm 0 W/m2
04:11 12.8 °C 10.8 °C 1017.5 hPa WSW 6.4 km/h 11.3 km/h 88 % 0 mm 0 W/m2
04:16 12.8 °C 10.8 °C 1017.5 hPa WSW 6.4 km/h 11.3 km/h 88 % 0 mm 0 W/m2
04:21 12.8 °C 10.8 °C 1017.5 hPa WSW 6.4 km/h 11.3 km/h 88 % 0 mm 0 W/m2
04:26 12.9 °C 10.9 °C 1017.5 hPa West 3.2 km/h 9.7 km/h 88 % 0 mm 0 W/m2
04:31 12.9 °C 10.9 °C 1017.5 hPa West 3.2 km/h 9.7 km/h 88 % 0 mm 5 W/m2
04:36 12.9 °C 10.9 °C 1017.5 hPa West 3.2 km/h 9.7 km/h 88 % 0 mm 7 W/m2
04:41 12.9 °C 10.9 °C 1017.5 hPa WNW 1.6 km/h 8 km/h 88 % 0 mm 5 W/m2
04:46 12.9 °C 10.9 °C 1017.5 hPa Calm   4.8 km/h 88 % 0 mm 7 W/m2
04:51 12.9 °C 10.9 °C 1017.5 hPa Calm   1.6 km/h 88 % 0 mm 11 W/m2
04:56 12.8 °C 10.8 °C 1017.5 hPa Calm   6.4 km/h 88 % 0 mm 12 W/m2
05:01 12.8 °C 10.8 °C 1017.5 hPa Calm   6.4 km/h 88 % 0 mm 16 W/m2
05:06 12.8 °C 10.8 °C 1017.5 hPa WNW 1.6 km/h 8 km/h 88 % 0 mm 21 W/m2
05:11 12.8 °C 10.8 °C 1017.5 hPa WNW 3.2 km/h 8 km/h 88 % 0 mm 19 W/m2
05:16 12.9 °C 10.9 °C 1017.5 hPa WNW 3.2 km/h 9.7 km/h 88 % 0 mm 19 W/m2
05:21 12.9 °C 10.9 °C 1017.5 hPa WNW 4.8 km/h 9.7 km/h 88 % 0 mm 21 W/m2
05:27 12.9 °C 10.9 °C 1017.8 hPa WNW 3.2 km/h 9.7 km/h 88 % 0 mm 19 W/m2
05:32 12.9 °C 10.8 °C 1017.8 hPa WNW 4.8 km/h 11.3 km/h 87 % 0 mm 21 W/m2
05:37 12.9 °C 10.8 °C 1017.8 hPa WSW 4.8 km/h 11.3 km/h 87 % 0 mm 28 W/m2
05:42 13 °C 10.9 °C 1017.8 hPa WSW 3.2 km/h 8 km/h 87 % 0 mm 35 W/m2
05:47 13 °C 10.9 °C 1017.8 hPa WSW 3.2 km/h 8 km/h 87 % 0 mm 30 W/m2
05:52 13 °C 10.9 °C 1017.5 hPa WSW 3.2 km/h 8 km/h 87 % 0 mm 33 W/m2
05:53 13 °C 10.9 °C 1017.5 hPa WSW 3.2 km/h 8 km/h 87 % 0 mm 35 W/m2
05:58 13.1 °C 11 °C 1017.5 hPa WSW 3.2 km/h 8 km/h 87 % 0 mm 44 W/m2
06:03 13.1 °C 11 °C 1017.5 hPa WSW 3.2 km/h 8 km/h 87 % 0 mm 49 W/m2
06:05 13.1 °C 11 °C 1017.5 hPa WSW 3.2 km/h 8 km/h 87 % 0 mm 51 W/m2
06:10 13.1 °C 11 °C 1017.5 hPa WSW 1.6 km/h 6.4 km/h 87 % 0 mm 44 W/m2
06:15 13.2 °C 11.1 °C 1017.5 hPa WSW 1.6 km/h 6.4 km/h 87 % 0 mm 44 W/m2
06:20 13.2 °C 11.1 °C 1017.5 hPa Calm   6.4 km/h 87 % 0 mm 49 W/m2
06:25 13.3 °C 11.2 °C 1017.5 hPa Calm   3.2 km/h 87 % 0 mm 54 W/m2
06:30 13.3 °C 11.2 °C 1017.5 hPa Calm   3.2 km/h 87 % 0 mm 60 W/m2
06:35 13.3 °C 11.2 °C 1017.5 hPa Calm     87 % 0 mm 62 W/m2
06:40 13.4 °C 11.3 °C 1017.5 hPa Calm   3.2 km/h 87 % 0 mm 67 W/m2
06:45 13.5 °C 11.4 °C 1017.5 hPa SW 3.2 km/h 11.3 km/h 87 % 0 mm 95 W/m2
06:50 13.6 °C 11.5 °C 1017.5 hPa SW 4.8 km/h 11.3 km/h 87 % 0 mm 79 W/m2
06:55 13.7 °C 11.6 °C 1017.5 hPa SW 3.2 km/h 11.3 km/h 87 % 0 mm 49 W/m2
07:00 13.7 °C 11.6 °C 1017.5 hPa WSW 3.2 km/h 8 km/h 87 % 0 mm 58 W/m2
07:11 13.8 °C 11.8 °C 1017.5 hPa WSW 3.2 km/h 9.7 km/h 88 % 0 mm 107 W/m2
07:16 13.8 °C 11.8 °C 1017.8 hPa WSW 3.2 km/h 9.7 km/h 88 % 0 mm 93 W/m2
07:21 13.8 °C 11.8 °C 1017.8 hPa WSW 3.2 km/h 9.7 km/h 88 % 0 mm 79 W/m2
07:26 13.9 °C 11.9 °C 1017.8 hPa WSW 3.2 km/h 9.7 km/h 88 % 0 mm 93 W/m2
07:31 13.9 °C 11.9 °C 1017.8 hPa WSW 6.4 km/h 11.3 km/h 88 % 0 mm 95 W/m2
07:36 13.9 °C 11.9 °C 1017.8 hPa WSW 8 km/h 12.9 km/h 88 % 0 mm 116 W/m2
07:41 13.9 °C 11.9 °C 1017.8 hPa WSW 8 km/h 12.9 km/h 88 % 0 mm 118 W/m2
07:46 14 °C 12.1 °C 1017.8 hPa WSW 6.4 km/h 12.9 km/h 88 % 0 mm 149 W/m2
07:51 14.1 °C 12.2 °C 1017.8 hPa WSW 6.4 km/h 14.5 km/h 88 % 0 mm 160 W/m2
07:56 14.2 °C 12.1 °C 1017.8 hPa WSW 6.4 km/h 14.5 km/h 87 % 0 mm 171 W/m2
08:01 14.3 °C 12.2 °C 1017.8 hPa WSW 6.4 km/h 11.3 km/h 87 % 0 mm 197 W/m2
08:06 14.4 °C 12.3 °C 1017.8 hPa WSW 8 km/h 12.9 km/h 87 % 0 mm 221 W/m2
08:11 14.6 °C 12.3 °C 1017.8 hPa West 9.7 km/h 19.3 km/h 86 % 0 mm 230 W/m2
08:16 14.7 °C 12.2 °C 1017.8 hPa West 11.3 km/h 19.3 km/h 85 % 0 mm 227 W/m2
08:21 14.9 °C 12.2 °C 1017.8 hPa West 11.3 km/h 19.3 km/h 84 % 0 mm 237 W/m2
08:26 14.9 °C 12.1 °C 1017.8 hPa WSW 11.3 km/h 17.7 km/h 83 % 0 mm 241 W/m2
08:31 15 °C 12.1 °C 1017.8 hPa WSW 11.3 km/h 24.1 km/h 83 % 0 mm 241 W/m2
08:36 15.1 °C 12.1 °C 1017.8 hPa WSW 11.3 km/h 24.1 km/h 82 % 0 mm 281 W/m2
08:41 15.2 °C 12.2 °C 1017.8 hPa WSW 12.9 km/h 22.5 km/h 82 % 0 mm 392 W/m2
08:46 15.5 °C 12.4 °C 1017.8 hPa West 11.3 km/h 22.5 km/h 82 % 0 mm 272 W/m2
08:51 15.6 °C 12.3 °C 1017.8 hPa West 11.3 km/h 20.9 km/h 81 % 0 mm 353 W/m2
08:56 15.6 °C 12.3 °C 1017.8 hPa WSW 12.9 km/h 20.9 km/h 81 % 0 mm 304 W/m2
09:01 15.7 °C 12.4 °C 1017.8 hPa WSW 11.3 km/h 19.3 km/h 81 % 0 mm 334 W/m2
09:06 15.9 °C 12.7 °C 1017.8 hPa WSW 9.7 km/h 14.5 km/h 81 % 0 mm 318 W/m2
09:11 16.2 °C 12.7 °C 1017.8 hPa West 9.7 km/h 16.1 km/h 80 % 0 mm 251 W/m2
09:16 16.4 °C 12.7 °C 1017.8 hPa West 11.3 km/h 16.1 km/h 79 % 0 mm 302 W/m2
09:21 16.5 °C 12.8 °C 1017.8 hPa WNW 11.3 km/h 20.9 km/h 79 % 0 mm 306 W/m2
09:26 16.6 °C 12.7 °C 1017.8 hPa West 12.9 km/h 20.9 km/h 78 % 0 mm 362 W/m2
09:31 16.7 °C 12.8 °C 1018.2 hPa West 12.9 km/h 19.3 km/h 78 % 0 mm 443 W/m2
09:36 16.9 °C 12.8 °C 1017.8 hPa West 11.3 km/h 19.3 km/h 77 % 0 mm 427 W/m2
09:42 17.1 °C 12.6 °C 1017.8 hPa West 12.9 km/h 22.5 km/h 75 % 0 mm 388 W/m2
09:47 17.2 °C 12.7 °C 1017.8 hPa West 12.9 km/h 22.5 km/h 75 % 0 mm 445 W/m2
09:52 17.3 °C 12.6 °C 1017.8 hPa West 12.9 km/h 22.5 km/h 74 % 0 mm 413 W/m2
09:57 17.6 °C 12.7 °C 1017.8 hPa West 12.9 km/h 22.5 km/h 73 % 0 mm 571 W/m2
10:02 17.7 °C 12.8 °C 1017.8 hPa West 12.9 km/h 22.5 km/h 73 % 0 mm 729 W/m2
10:07 17.8 °C 12.7 °C 1017.8 hPa West 12.9 km/h 22.5 km/h 72 % 0 mm 432 W/m2
10:12 18 °C 12.9 °C 1017.8 hPa WNW 12.9 km/h 22.5 km/h 72 % 0 mm 360 W/m2
10:17 18.1 °C 12.8 °C 1017.8 hPa WNW 11.3 km/h 20.9 km/h 71 % 0 mm 380 W/m2
10:22 18.2 °C 12.8 °C 1017.8 hPa WNW 11.3 km/h 17.7 km/h 71 % 0 mm 415 W/m2
10:27 18.2 °C 12.8 °C 1017.8 hPa West 11.3 km/h 19.3 km/h 71 % 0 mm 468 W/m2
10:32 18.3 °C 12.9 °C 1018.2 hPa West 9.7 km/h 19.3 km/h 71 % 0 mm 297 W/m2
10:37 18.2 °C 12.6 °C 1017.8 hPa West 9.7 km/h 19.3 km/h 70 % 0 mm 330 W/m2
10:42 18.1 °C 12.8 °C 1017.8 hPa West 9.7 km/h 16.1 km/h 71 % 0 mm 218 W/m2
10:47 17.9 °C 12.6 °C 1018.2 hPa West 9.7 km/h 17.7 km/h 71 % 0 mm 209 W/m2
10:52 17.8 °C 12.7 °C 1018.2 hPa West 9.7 km/h 17.7 km/h 72 % 0 mm 285 W/m2
10:57 17.8 °C 12.7 °C 1017.8 hPa West 11.3 km/h 19.3 km/h 72 % 0 mm 292 W/m2
11:02 17.9 °C 12.8 °C 1017.8 hPa West 8 km/h 19.3 km/h 72 % 0 mm 227 W/m2
11:07 17.9 °C 12.6 °C 1018.2 hPa West 9.7 km/h 19.3 km/h 71 % 0 mm 239 W/m2
11:08 17.9 °C 12.6 °C 1018.2 hPa West 9.7 km/h 19.3 km/h 71 % 0 mm 244 W/m2
11:13 17.7 °C 12.4 °C 1018.2 hPa West 12.9 km/h 20.9 km/h 71 % 0 mm 380 W/m2
11:18 17.7 °C 12.4 °C 1018.2 hPa West 11.3 km/h 20.9 km/h 71 % 0 mm 207 W/m2
11:23 17.7 °C 12.4 °C 1018.2 hPa WSW 9.7 km/h 16.1 km/h 71 % 0 mm 206 W/m2
11:28 17.6 °C 12.3 °C 1018.2 hPa WSW 9.7 km/h 14.5 km/h 71 % 0 mm 269 W/m2
11:33 17.7 °C 12.6 °C 1018.2 hPa West 9.7 km/h 14.5 km/h 72 % 0 mm 316 W/m2
11:38 17.8 °C 12.7 °C 1018.2 hPa West 8 km/h 14.5 km/h 72 % 0 mm 262 W/m2
11:44 17.8 °C 12.7 °C 1018.2 hPa WSW 8 km/h 17.7 km/h 72 % 0 mm 288 W/m2
11:49 17.8 °C 12.4 °C 1017.8 hPa SW 9.7 km/h 17.7 km/h 71 % 0 mm 519 W/m2
11:59 18.1 °C 12.8 °C 1017.8 hPa SSW 8 km/h 14.5 km/h 71 % 0 mm 513 W/m2
12:04 18.3 °C 12.9 °C 1017.8 hPa SW 6.4 km/h 12.9 km/h 71 % 0 mm 383 W/m2
12:09 18.6 °C 13.2 °C 1017.8 hPa WSW 4.8 km/h 12.9 km/h 71 % 0 mm 454 W/m2
12:14 19 °C 13.2 °C 1018.2 hPa West 4.8 km/h 12.9 km/h 69 % 0 mm 541 W/m2
12:19 19.3 °C 13 °C 1018.2 hPa West 6.4 km/h 17.7 km/h 67 % 0 mm 548 W/m2
12:24 19.3 °C 12.8 °C 1018.2 hPa WSW 9.7 km/h 24.1 km/h 66 % 0 mm 438 W/m2
12:29 19.2 °C 13.2 °C 1018.2 hPa SW 9.7 km/h 24.1 km/h 68 % 0 mm 490 W/m2
12:34 19.2 °C 12.9 °C 1018.2 hPa SSW 8 km/h 16.1 km/h 67 % 0 mm 279 W/m2
12:39 19.1 °C 13.1 °C 1018.2 hPa SSW 8 km/h 16.1 km/h 68 % 0 mm 230 W/m2
12:44 18.9 °C 12.9 °C 1018.2 hPa SSW 9.7 km/h 16.1 km/h 68 % 0 mm 192 W/m2
12:49 18.8 °C 12.8 °C 1018.2 hPa SW 8 km/h 12.9 km/h 68 % 0 mm 156 W/m2
12:54 18.7 °C 12.9 °C 1018.2 hPa SW 8 km/h 12.9 km/h 69 % 0 mm 163 W/m2
12:59 18.5 °C 12.7 °C 1018.2 hPa SW 6.4 km/h 9.7 km/h 69 % 0 mm 234 W/m2
13:04 18.6 °C 13.2 °C 1018.2 hPa SW 4.8 km/h 9.7 km/h 71 % 0 mm 394 W/m2
13:09 18.6 °C 13 °C 1018.2 hPa SW 4.8 km/h 9.7 km/h 70 % 0 mm 338 W/m2
13:14 18.7 °C 13.1 °C 1018.2 hPa SW 6.4 km/h 9.7 km/h 70 % 0 mm 258 W/m2
13:19 18.7 °C 12.9 °C 1017.8 hPa SSW 6.4 km/h 9.7 km/h 69 % 0 mm 271 W/m2
13:24 18.8 °C 13.2 °C 1017.8 hPa SSW 4.8 km/h 12.9 km/h 70 % 0 mm 369 W/m2
13:29 19 °C 13.2 °C 1017.8 hPa WSW 6.4 km/h 17.7 km/h 69 % 0 mm 329 W/m2
13:34 19.2 °C 13.2 °C 1017.8 hPa West 11.3 km/h 19.3 km/h 68 % 0 mm 494 W/m2
13:39 19.3 °C 13.2 °C 1017.8 hPa WSW 12.9 km/h 19.3 km/h 68 % 0 mm 533 W/m2
13:44 19.4 °C 13.3 °C 1017.8 hPa WSW 11.3 km/h 19.3 km/h 68 % 0 mm 399 W/m2
13:49 19.6 °C 13.3 °C 1017.8 hPa WSW 11.3 km/h 19.3 km/h 67 % 0 mm 390 W/m2
13:54 19.6 °C 13.3 °C 1017.8 hPa WSW 11.3 km/h 22.5 km/h 67 % 0 mm 513 W/m2
13:59 19.7 °C 13.4 °C 1017.8 hPa WSW 9.7 km/h 22.5 km/h 67 % 0 mm 570 W/m2
14:04 19.8 °C 13.5 °C 1017.8 hPa WSW 9.7 km/h 17.7 km/h 67 % 0 mm 496 W/m2
14:09 20.1 °C 13.3 °C 1017.8 hPa WSW 11.3 km/h 20.9 km/h 65 % 0 mm 1158 W/m2
14:14 20.6 °C 13.8 °C 1017.8 hPa West 14.5 km/h 25.7 km/h 65 % 0 mm 1179 W/m2
14:19 21.2 °C 14.1 °C 1017.8 hPa West 14.5 km/h 25.7 km/h 64 % 0 mm 1148 W/m2
14:24 21.6 °C 13.8 °C 1017.8 hPa West 14.5 km/h 22.5 km/h 61 % 0 mm 1081 W/m2
14:29 21.7 °C 13.3 °C 1017.8 hPa West 14.5 km/h 22.5 km/h 59 % 0 mm 1088 W/m2
14:34 21.8 °C 13.2 °C 1017.8 hPa WSW 12.9 km/h 22.5 km/h 58 % 0 mm 1218 W/m2
14:39 21.7 °C 13.3 °C 1017.8 hPa WSW 14.5 km/h 20.9 km/h 59 % 0 mm 343 W/m2
14:44 21.5 °C 13.4 °C 1017.8 hPa West 14.5 km/h 20.9 km/h 60 % 0 mm 352 W/m2
14:49 21.2 °C 13.4 °C 1017.8 hPa West 14.5 km/h 20.9 km/h 61 % 0 mm 334 W/m2
14:54 21.2 °C 13.6 °C 1017.8 hPa West 12.9 km/h 20.9 km/h 62 % 0 mm 322 W/m2
14:59 21.1 °C 13.3 °C 1017.8 hPa West 12.9 km/h 24.1 km/h 61 % 0 mm 366 W/m2
15:04 20.9 °C 13.3 °C 1017.8 hPa West 16.1 km/h 24.1 km/h 62 % 0 mm 362 W/m2
15:09 20.8 °C 13.7 °C 1017.8 hPa WNW 16.1 km/h 24.1 km/h 64 % 0 mm 318 W/m2
15:14 20.6 °C 13.6 °C 1017.8 hPa WNW 14.5 km/h 24.1 km/h 64 % 0 mm 253 W/m2
15:19 20.4 °C 13.6 °C 1017.8 hPa West 12.9 km/h 19.3 km/h 65 % 0 mm 329 W/m2
15:25 20.3 °C 13.7 °C 1017.8 hPa West 11.3 km/h 20.9 km/h 66 % 0 mm 438 W/m2
15:30 20.2 °C 13.4 °C 1017.8 hPa WSW 12.9 km/h 22.5 km/h 65 % 0 mm 494 W/m2
15:35 20 °C 13.4 °C 1018.2 hPa WSW 14.5 km/h 24.1 km/h 66 % 0 mm 438 W/m2
15:40 20.2 °C 13.7 °C 1017.8 hPa West 14.5 km/h 24.1 km/h 66 % 0 mm 429 W/m2
15:45 20.4 °C 13.8 °C 1017.8 hPa West 14.5 km/h 24.1 km/h 66 % 0 mm 413 W/m2
15:50 20.5 °C 13.9 °C 1017.8 hPa West 14.5 km/h 24.1 km/h 66 % 0 mm 548 W/m2
15:55 20.5 °C 13.7 °C 1017.8 hPa West 12.9 km/h 19.3 km/h 65 % 0 mm 492 W/m2
16:00 20.6 °C 13.8 °C 1017.8 hPa West 11.3 km/h 19.3 km/h 65 % 0 mm 362 W/m2
16:05 20.6 °C 13.8 °C 1018.2 hPa West 11.3 km/h 17.7 km/h 65 % 0 mm 378 W/m2
16:10 20.4 °C 13.3 °C 1018.2 hPa West 12.9 km/h 19.3 km/h 64 % 0 mm 427 W/m2
16:15 20.5 °C 13.4 °C 1018.2 hPa West 11.3 km/h 19.3 km/h 64 % 0 mm 536 W/m2
16:20 20.7 °C 13.9 °C 1018.2 hPa West 11.3 km/h 19.3 km/h 65 % 0 mm 503 W/m2
16:25 20.9 °C 13.6 °C 1018.2 hPa West 12.9 km/h 20.9 km/h 63 % 0 mm 318 W/m2
16:30 20.8 °C 13.5 °C 1017.8 hPa West 14.5 km/h 20.9 km/h 63 % 0 mm 322 W/m2
16:35 20.7 °C 13.4 °C 1017.8 hPa West 14.5 km/h 25.7 km/h 63 % 0 mm 311 W/m2
16:40 20.5 °C 13.4 °C 1018.2 hPa West 14.5 km/h 25.7 km/h 64 % 0 mm 274 W/m2
16:45 20.3 °C 13.3 °C 1017.8 hPa West 12.9 km/h 20.9 km/h 64 % 0 mm 234 W/m2
16:46 20.3 °C 13.3 °C 1017.8 hPa West 12.9 km/h 20.9 km/h 64 % 0 mm 229 W/m2
16:51 20.2 °C 13.7 °C 1017.8 hPa West 11.3 km/h 19.3 km/h 66 % 0 mm 200 W/m2
16:56 20.2 °C 13.7 °C 1018.2 hPa WSW 9.7 km/h 16.1 km/h 66 % 0 mm 176 W/m2
17:01 20.1 °C 13.3 °C 1017.8 hPa West 11.3 km/h 17.7 km/h 65 % 0 mm 169 W/m2
17:06 19.9 °C 13.3 °C 1017.8 hPa West 11.3 km/h 17.7 km/h 66 % 0 mm 174 W/m2
17:11 19.9 °C 13.6 °C 1017.8 hPa West 9.7 km/h 17.7 km/h 67 % 0 mm 174 W/m2
17:16 19.9 °C 13.3 °C 1017.8 hPa West 9.7 km/h 16.1 km/h 66 % 0 mm 176 W/m2
17:21 19.9 °C 13.6 °C 1017.8 hPa West 11.3 km/h 17.7 km/h 67 % 0 mm 176 W/m2
17:26 19.8 °C 13.5 °C 1017.8 hPa West 11.3 km/h 17.7 km/h 67 % 0 mm 167 W/m2
17:31 19.8 °C 13.3 °C 1017.8 hPa West 12.9 km/h 22.5 km/h 66 % 0 mm 155 W/m2
17:36 19.7 °C 13.4 °C 1018.2 hPa West 12.9 km/h 22.5 km/h 67 % 0 mm 151 W/m2
17:41 19.6 °C 13.3 °C 1017.8 hPa West 12.9 km/h 20.9 km/h 67 % 0 mm 149 W/m2
17:46 19.5 °C 13.2 °C 1017.8 hPa West 12.9 km/h 20.9 km/h 67 % 0 mm 146 W/m2
17:51 19.4 °C 13.3 °C 1017.8 hPa West 14.5 km/h 22.5 km/h 68 % 0 mm 134 W/m2
17:56 19.3 °C 13.2 °C 1017.8 hPa West 14.5 km/h 22.5 km/h 68 % 0 mm 142 W/m2
18:01 19.2 °C 13.2 °C 1017.8 hPa West 14.5 km/h 20.9 km/h 68 % 0 mm 156 W/m2
18:06 19.1 °C 13.3 °C 1017.8 hPa West 12.9 km/h 20.9 km/h 69 % 0 mm 155 W/m2
18:11 19.1 °C 13.3 °C 1017.8 hPa West 11.3 km/h 19.3 km/h 69 % 0 mm 139 W/m2
18:16 19.1 °C 13.3 °C 1017.8 hPa West 11.3 km/h 19.3 km/h 69 % 0 mm 139 W/m2
18:21 19.1 °C 13.3 °C 1017.8 hPa West 11.3 km/h 17.7 km/h 69 % 0 mm 179 W/m2
18:26 19.2 °C 13.4 °C 1017.8 hPa West 11.3 km/h 16.1 km/h 69 % 0 mm 190 W/m2
18:31 19.2 °C 13.4 °C 1017.8 hPa West 9.7 km/h 14.5 km/h 69 % 0 mm 167 W/m2
18:37 19.3 °C 13.2 °C 1017.8 hPa West 8 km/h 12.9 km/h 68 % 0 mm 153 W/m2
18:42 19.3 °C 13.4 °C 1017.8 hPa West 8 km/h 14.5 km/h 69 % 0 mm 148 W/m2
18:47 19.3 °C 13.7 °C 1017.8 hPa West 6.4 km/h 14.5 km/h 70 % 0 mm 153 W/m2
18:52 19.4 °C 13.6 °C 1017.8 hPa West 6.4 km/h 14.5 km/h 69 % 0 mm 153 W/m2
18:57 19.4 °C 13.3 °C 1017.8 hPa West 9.7 km/h 16.1 km/h 68 % 0 mm 148 W/m2
19:02 19.3 °C 13.2 °C 1017.8 hPa West 11.3 km/h 16.1 km/h 68 % 0 mm 121 W/m2
19:07 19.3 °C 13.2 °C 1017.8 hPa WSW 8 km/h 14.5 km/h 68 % 0 mm 88 W/m2
19:12 19.3 °C 13.4 °C 1017.8 hPa WSW 6.4 km/h 12.9 km/h 69 % 0 mm 88 W/m2
19:17 19.2 °C 13.2 °C 1017.8 hPa WSW 8 km/h 12.9 km/h 68 % 0 mm 81 W/m2
19:22 19.1 °C 13.3 °C 1017.8 hPa WSW 8 km/h 12.9 km/h 69 % 0 mm 77 W/m2
19:27 19.1 °C 13.5 °C 1017.8 hPa WSW 8 km/h 12.9 km/h 70 % 0 mm 76 W/m2
19:32 19.1 °C 13.5 °C 1017.8 hPa WSW 6.4 km/h 11.3 km/h 70 % 0 mm 83 W/m2
19:37 19 °C 13.4 °C 1017.8 hPa WSW 8 km/h 12.9 km/h 70 % 0 mm 95 W/m2
19:38 19 °C 13.4 °C 1017.5 hPa WSW 8 km/h 12.9 km/h 70 % 0 mm 95 W/m2
19:43 18.9 °C 13.3 °C 1017.5 hPa SW 9.7 km/h 14.5 km/h 70 % 0 mm 83 W/m2
19:48 18.8 °C 13.4 °C 1017.8 hPa SW 9.7 km/h 14.5 km/h 71 % 0 mm 77 W/m2
19:53 18.7 °C 13.3 °C 1017.8 hPa SW 9.7 km/h 16.1 km/h 71 % 0 mm 70 W/m2
19:58 18.7 °C 13.1 °C 1017.8 hPa SW 9.7 km/h 16.1 km/h 70 % 0 mm 65 W/m2
20:03 18.6 °C 13.2 °C 1017.8 hPa SW 11.3 km/h 14.5 km/h 71 % 0 mm 58 W/m2
20:08 18.5 °C 13.2 °C 1017.5 hPa SW 8 km/h 14.5 km/h 71 % 0 mm 53 W/m2
20:13 18.4 °C 13.3 °C 1017.5 hPa SW 6.4 km/h 12.9 km/h 72 % 0 mm 49 W/m2
20:18 18.4 °C 13.3 °C 1017.5 hPa SW 6.4 km/h 11.3 km/h 72 % 0 mm 44 W/m2
20:23 18.3 °C 13.2 °C 1017.5 hPa SW 6.4 km/h 11.3 km/h 72 % 0 mm 39 W/m2
20:28 18.3 °C 13.4 °C 1017.5 hPa SW 4.8 km/h 11.3 km/h 73 % 0 mm 37 W/m2
20:34 18.3 °C 13.4 °C 1017.5 hPa SW 4.8 km/h 11.3 km/h 73 % 0 mm 33 W/m2
20:39 18.2 °C 13.3 °C 1017.8 hPa SW 4.8 km/h 9.7 km/h 73 % 0 mm 25 W/m2
20:44 18.2 °C 13.5 °C 1017.8 hPa SW 4.8 km/h 8 km/h 74 % 0 mm 18 W/m2
20:49 18.1 °C 13.4 °C 1017.8 hPa SW 4.8 km/h 9.7 km/h 74 % 0 mm 16 W/m2
20:54 18.1 °C 13.4 °C 1017.8 hPa SW 6.4 km/h 11.3 km/h 74 % 0 mm 14 W/m2
20:59 18.1 °C 13.4 °C 1017.8 hPa SW 6.4 km/h 11.3 km/h 74 % 0 mm 14 W/m2
21:04 18 °C 13.3 °C 1017.8 hPa SW 4.8 km/h 11.3 km/h 74 % 0 mm 9 W/m2
21:09 17.9 °C 13.4 °C 1017.8 hPa SW 4.8 km/h 8 km/h 75 % 0 mm 7 W/m2
21:14 17.8 °C 13.3 °C 1017.8 hPa SW 4.8 km/h 9.7 km/h 75 % 0 mm 5 W/m2
21:19 17.8 °C 13.3 °C 1017.8 hPa SW 4.8 km/h 11.3 km/h 75 % 0 mm 0 W/m2
21:24 17.7 °C 13.4 °C 1018.2 hPa WSW 4.8 km/h 11.3 km/h 76 % 0 mm 0 W/m2
21:29 17.7 °C 13.4 °C 1018.2 hPa WSW 4.8 km/h 9.7 km/h 76 % 0 mm 0 W/m2
21:34 17.6 °C 13.3 °C 1018.2 hPa WSW 3.2 km/h 8 km/h 76 % 0 mm 0 W/m2
21:39 17.6 °C 13.3 °C 1017.8 hPa WSW 3.2 km/h 8 km/h 76 % 0 mm 0 W/m2
21:44 17.5 °C 13.2 °C 1017.8 hPa WSW 3.2 km/h 8 km/h 76 % 0 mm 0 W/m2
21:49 17.4 °C 13.1 °C 1017.8 hPa WSW 3.2 km/h 9.7 km/h 76 % 0 mm 0 W/m2
21:54 17.3 °C 13.2 °C 1017.8 hPa WSW 3.2 km/h 9.7 km/h 77 % 0 mm 0 W/m2
21:59 17.3 °C 13.2 °C 1018.2 hPa SW 3.2 km/h 8 km/h 77 % 0 mm 0 W/m2
22:04 17.2 °C 13.1 °C 1017.8 hPa SW 3.2 km/h 8 km/h 77 % 0 mm 0 W/m2
22:09 17.1 °C 13.1 °C 1017.8 hPa SW 3.2 km/h 8 km/h 77 % 0 mm 0 W/m2
22:10 17.1 °C 13.2 °C 1017.8 hPa SW 1.6 km/h 8 km/h 78 % 0 mm 0 W/m2
22:15 17.1 °C 13.2 °C 1017.8 hPa SW 1.6 km/h 8 km/h 78 % 0 mm 0 W/m2
22:20 17 °C 13.1 °C 1017.8 hPa Calm     78 % 0 mm 0 W/m2
22:31 16.8 °C 12.9 °C 1017.8 hPa Calm     78 % 0 mm 0 W/m2
22:36 16.7 °C 13.1 °C 1017.8 hPa Calm   1.6 km/h 79 % 0 mm 0 W/m2
22:41 16.5 °C 12.8 °C 1017.8 hPa Calm   1.6 km/h 79 % 0 mm 0 W/m2
22:46 16.3 °C 12.8 °C 1017.8 hPa Calm   6.4 km/h 80 % 0 mm 0 W/m2
22:51 16.2 °C 12.7 °C 1017.8 hPa SW 1.6 km/h 6.4 km/h 80 % 0 mm 0 W/m2
22:56 15.9 °C 12.7 °C 1017.8 hPa Calm   6.4 km/h 81 % 0 mm 0 W/m2
23:01 15.8 °C 12.6 °C 1017.8 hPa Calm   6.4 km/h 81 % 0 mm 0 W/m2
23:06 15.6 °C 12.6 °C 1017.8 hPa WSW 1.6 km/h 6.4 km/h 82 % 0 mm 0 W/m2
23:11 15.4 °C 12.3 °C 1017.8 hPa WSW 1.6 km/h 6.4 km/h 82 % 0 mm 0 W/m2
23:16 15.2 °C 12.2 °C 1017.8 hPa Calm   3.2 km/h 82 % 0 mm 0 W/m2
23:21 15.1 °C 12.1 °C 1017.8 hPa Calm     82 % 0 mm 0 W/m2
23:26 15 °C 12.1 °C 1017.8 hPa Calm     83 % 0 mm 0 W/m2
23:28 14.9 °C 12.1 °C 1017.8 hPa Calm     83 % 0 mm 0 W/m2
23:33 14.7 °C 11.8 °C 1017.8 hPa Calm     83 % 0 mm 0 W/m2
23:38 14.6 °C 11.9 °C 1017.8 hPa Calm     84 % 0 mm 0 W/m2
23:43 14.5 °C 12 °C 1017.8 hPa Calm     85 % 0 mm 0 W/m2
23:48 14.4 °C 11.9 °C 1017.8 hPa Calm     85 % 0 mm 0 W/m2
23:53 14.3 °C 12 °C 1017.8 hPa Calm     86 % 0 mm 0 W/m2
23:58 14.2 °C 11.9 °C 1017.8 hPa Calm     86 % 0 mm 0 W/m2
Delerius-Weather
Compliments of Weather Underground - 2.25 mb

Data updates at regular intervals.